Location: Mount Kobau Star Party
(49.1167°N, 119.7333°W)
Time: 10:59:23
(UTC-07:00)

ARIANE 6 FM1 Upper Stage - Pass Details

Date: 18 April 2026
Orbit: 526 x 601 km, 62.0° (Epoch: 18 May)

Event Time Altitude Azimuth Distance (km) Brightness Sun altitude
Rises 01:52:23 0° 315° (NW) 2,671 6.5 -28.8°
Reaches altitude 10° 01:54:35 10° 315° (NW) 1,774 5.5 -28.7°
Enters shadow 01:55:17 15° 316° (NW) 1,498 5.1 -28.7°
